Vertical_Velocity
-0 -0 -0 -0 -0 -0 -0 -0 0 1 2 3 4 4 3 2 1 -0 -0 1 2 2 2 1 2 2 2 4 5 5 4 3 3 3 2 1 -3 -3 -1 2 3 3 2 1 0 0 1 2 3 4 5 6 10 10 6 -0 2 4 5 4 4 6 10 13 14 11 7 3 5
0 0 0 0 0 0 -0 -0 -0 0 1 2 3 4 5 4 3 1 1 1 0 0 1 -0 0 1 2 3 4 4 4 3 3 3 2 -1 -3 -2 1 3 3 2 1 1 1 2 2 2 3 3 4 5 10 11 9 3 4 6 6 4 3 5 9 12 13 12 8 3 1
1 1 1 0 0 0 0 -0 -0 0 1 1 2 4 5 5 3 2 1 -0 -1 -1 -1 -2 -1 1 3 4 3 3 3 3 4 3 1 -3 -2 1 3 3 1 1 1 3 2 2 1 1 2 3 5 8 13 13 10 6 5 5 6 6 4 5 7 9 10 10 9 6 1
1 0 0 0 1 1 1 1 1 1 1 1 1 2 3 4 3 2 2 1 1 -1 -2 -3 -1 2 3 3 1 1 1 3 4 2 0 -1 1 2 2 1 -0 0 1 2 2 1 1 1 2 3 6 9 12 9 5 4 5 4 4 6 5 4 5 6 6 7 7 5 3
0 0 1 1 1 1 1 1 1 1 1 1 1 1 1 2 2 2 2 2 2 1 0 -0 1 1 2 0 -1 -1 -0 1 2 1 -0 -0 2 2 2 1 0 -0 0 2 2 2 2 2 3 3 4 6 8 4 -1 2 4 3 2 2 4 4 3 2 3 4 4 4 4
0 1 1 2 2 1 1 1 2 2 2 2 1 1 1 1 2 2 2 2 3 4 4 2 -1 -1 -0 -0 -2 -2 -1 -0 0 -0 -0 0 2 3 3 1 0 0 1 2 3 3 4 4 4 3 2 3 7 3 -2 -2 1 1 -0 0 2 3 4 3 3 3 4 6 7
1 1 1 1 2 2 2 2 3 3 3 3 2 2 2 1 2 2 3 3 5 6 4 -0 -3 -3 -1 -0 -1 -1 -1 -1 -1 -1 -0 2 4 4 2 1 1 1 1 2 3 4 5 5 4 2 0 1 7 6 -0 -5 -1 -0 -0 -1 1 3 4 4 4 4 6 8 10
1 1 1 1 2 2 3 3 4 4 4 4 3 4 4 4 4 3 4 4 5 4 1 -4 -4 -3 -1 0 0 -0 -1 -1 -0 0 1 2 2 1 1 0 1 1 1 2 2 3 4 4 3 1 -2 -4 4 7 6 -1 2 2 1 -1 -0 1 3 3 4 5 6 8 10
1 1 1 2 2 3 3 3 4 4 4 4 4 5 6 6 6 5 4 3 3 -0 -4 -4 -2 -1 1 2 1 0 -0 0 0 0 -0 -0 -1 -1 -1 -0 0 1 1 1 1 2 2 2 1 -1 -3 -4 2 7 10 6 7 6 4 1 0 0 1 2 3 4 5 6 7
1 1 1 2 2 3 3 3 4 4 4 5 5 7 8 8 6 6 6 3 5 0 -5 -6 -1 2 3 3 2 2 2 1 -0 -1 -2 -3 -3 -3 -2 -1 -0 0 0 0 0 0 1 1 1 -1 -3 -3 2 7 10 9 8 8 9 7 4 1 -0 -0 1 2 4 5 4
1 2 2 2 2 2 3 3 3 4 5 6 8 9 8 5 2 1 3 5 7 2 -4 -6 -0 3 4 4 4 3 2 1 -1 -1 -2 -2 -3 -3 -3 -2 -1 -1 -0 -0 -0 -0 1 2 3 1 -2 -3 -2 1 5 8 6 7 9 10 7 4 1 0 -0 1 3 4 2
2 2 2 2 2 2 3 2 3 4 6 7 7 5 1 -4 -4 -2 0 5 4 1 -2 -0 3 5 5 5 4 2 1 -0 -0 -0 -0 -1 -2 -3 -3 -2 -2 -2 -2 -1 -1 -0 1 4 4 3 1 -2 -2 -0 3 7 6 8 10 11 10 8 6 2 0 0 1 1 0
2 2 2 2 2 3 3 3 4 4 4 1 -1 -3 -4 -4 0 3 5 6 4 3 3 3 5 5 5 4 2 1 0 0 0 0 0 -0 -1 -2 -3 -3 -3 -3 -3 -2 -1 -0 1 3 4 3 2 1 1 4 6 8 7 9 12 15 18 17 13 5 -0 -2 -1 -1 -1
2 1 1 1 2 3 4 4 3 0 -2 -6 -3 -1 1 4 7 8 9 8 6 5 4 3 4 4 4 2 2 1 1 1 1 1 1 0 0 -1 -2 -2 -2 -3 -3 -3 -1 -0 1 2 3 2 1 1 3 6 8 8 6 7 10 15 21 22 18 6 0 -1 -1 -0 -0
1 0 1 2 3 3 2 0 -2 -3 -3 -1 2 4 6 7 8 8 8 8 5 3 3 4 4 3 2 2 2 2 1 1 1 1 1 1 1 0 -0 -1 -1 -2 -3 -4 -4 -2 -1 1 1 0 0 1 1 2 5 8 10 10 10 11 17 20 18 9 5 3 3 2 2
-0 0 1 1 2 1 -1 -4 -2 0 2 4 4 4 5 5 5 5 6 5 3 3 3 4 3 3 2 3 2 2 2 1 2 2 2 2 1 1 0 -0 -1 -2 -4 -6 -6 -6 -4 -1 -0 1 1 3 -0 -2 0 8 16 19 19 16 17 17 15 12 9 8 8 7 6
-0 -0 -0 1 -0 -2 -3 -3 1 3 4 3 3 3 3 2 3 3 4 3 3 3 3 2 2 2 3 2 2 2 2 2 2 2 2 1 1 0 -0 -1 -2 -3 -5 -7 -8 -7 -5 -3 -1 1 2 4 1 -2 -2 5 15 22 25 24 18 13 9 9 11 11 11 9 7
-1 -1 -0 0 -1 -2 -1 1 3 3 2 2 2 2 2 2 2 2 2 2 2 2 2 1 1 2 3 2 2 2 2 2 2 2 1 -0 -0 -1 -1 -2 -3 -4 -5 -6 -6 -6 -5 -3 -2 -1 -0 2 4 3 2 4 10 16 21 24 18 11 6 4 10 12 11 8 5
-1 -0 1 2 1 0 1 2 2 2 2 1 1 1 1 1 1 1 1 1 1 1 1 1 1 1 2 2 2 2 2 2 2 1 0 -1 -1 -1 -1 -2 -4 -5 -6 -6 -5 -4 -3 -2 -1 -1 0 1 4 6 7 6 7 11 16 19 15 9 4 2 7 9 8 4 1
-0 1 2 2 1 1 1 2 2 2 2 1 1 0 0 -0 1 1 1 0 1 1 2 2 1 1 1 1 2 2 2 2 2 1 0 -0 -0 -0 -0 -1 -3 -5 -6 -5 -3 -1 -0 -0 1 2 3 3 2 4 6 6 8 10 13 15 12 7 2 1 4 4 3 0 -1
0 1 1 1 2 2 1 2 2 1 1 0 -0 -0 -0 0 1 1 1 0 1 2 2 1 1 1 1 1 2 2 1 0 1 0 -0 -0 1 0 -1 -1 -4 -6 -6 -4 -1 1 2 2 3 3 3 1 -1 -0 1 2 4 6 9 10 8 5 3 3 4 2 0 -2 -1
0 0 1 1 1 1 1 1 0 0 -0 -0 -0 0 1 1 1 1 1 1 2 2 2 1 1 1 1 1 1 1 -0 -1 -1 -1 -1 -0 -1 -2 -3 -3 -4 -4 -4 -2 -0 1 1 1 2 2 2 2 0 -0 -0 -0 -1 1 4 6 4 3 5 9 10 9 5 2 0
0 0 0 -0 -0 -0 -0 -0 -1 -1 -0 -0 -0 0 1 1 1 1 2 2 2 2 2 2 2 1 1 0 -0 -0 -0 -1 -1 -1 -1 -0 -2 -3 -4 -4 -3 -2 -2 -1 0 0 -0 -1 -1 1 4 6 6 5 4 2 0 -0 0 0 0 2 6 10 11 10 8 5 3
-0 -1 -1 -1 -1 -1 -1 -1 -1 -1 -1 -0 0 0 1 1 1 1 1 1 1 2 2 1 1 1 -0 -1 -1 -1 -1 -1 -0 1 1 1 -1 -3 -4 -3 -2 -1 -1 -1 -1 -2 -2 -2 0 1 2 6 10 10 10 12 10 5 -1 -3 -2 1 4 7 6 5 5 5 4
-2 -2 -2 -2 -2 -2 -1 -1 -1 -1 -1 -0 -0 0 1 1 1 1 1 1 1 1 0 0 -1 -1 -2 -3 -4 -3 -3 -2 -1 -1 -1 -1 -2 -3 -3 -2 -1 -0 -0 -1 -2 -3 -3 -0 4 4 3 3 6 8 11 17 17 10 1 -3 -1 1 2 3 2 2 3 3 3
-3 -3 -2 -2 -2 -2 -2 -2 -1 -1 -1 -0 -0 0 0 1 1 1 1 1 0 -0 -1 -2 -3 -3 -3 -3 -2 -2 -1 -1 -1 -2 -3 -4 -4 -4 -3 -2 -1 -1 -1 -2 -2 -1 1 2 5 6 7 7 7 6 8 14 15 10 4 1 2 2 2 1 0 -0 -0 1 2
-3 -2 -2 -3 -3 -3 -2 -2 -2 -1 -1 -1 -0 -0 -0 -0 -0 0 1 1 0 -0 -1 -2 -2 -2 -1 0 2 2 1 0 -1 -2 -4 -4 -5 -5 -4 -2 -1 -2 -3 -3 1 4 5 3 1 2 5 8 4 -1 -4 -1 4 5 5 4 2 1 0 -1 -2 -2 -3 -1 0
-2 -2 -3 -3 -3 -3 -3 -2 -2 -1 -1 -1 -1 -1 -1 -1 -1 -1 -1 -0 -1 -1 -1 -2 -2 -1 1 2 2 1 -1 -2 -4 -4 -5 -5 -5 -6 -6 -4 -3 -3 -3 -1 4 5 5 5 5 7 8 8 2 -3 -7 -8 -6 -2 1 2 1 -0 -1 -3 -4 -4 -4 -3 -1
-2 -2 -2 -3 -3 -3 -2 -2 -2 -2 -1 -1 -1 -1 -1 -2 -2 -2 -2 -2 -2 -2 -2 -2 -1 0 1 1 -1 -2 -4 -5 -5 -4 -4 -4 -5 -6 -6 -6 -5 -5 -4 -2 2 5 6 7 9 9 8 6 2 -1 -4 -4 -3 -1 1 1 1 -0 -1 -2 -3 -3 -3 -2 -1
-1 -2 -2 -2 -2 -2 -2 -2 -2 -2 -2 -2 -2 -2 -2 -3 -3 -4 -4 -4 -4 -3 -3 -2 -0 1 1 -1 -2 -2 -3 -4 -4 -3 -2 -3 -3 -4 -3 -3 -2 -2 -1 -0 1 4 5 7 7 7 6 5 4 3 2 1 2 2 2 2 2 1 1 1 0 -0 -1 -1 -0
-1 -1 -2 -2 -2 -2 -2 -3 -3 -3 -3 -3 -3 -3 -3 -4 -4 -4 -4 -4 -4 -4 -3 -1 -0 -0 -0 -1 -1 -1 -2 -2 -1 -1 -1 -1 -1 -2 -1 -1 -1 -0 0 2 3 4 4 4 4 3 4 4 4 4 3 3 3 3 3 2 2 1 1 0 -0 -1 -1 -1 -0
-1 -1 -2 -2 -2 -2 -3 -3 -3 -4 -4 -4 -4 -4 -4 -4 -4 -4 -4 -3 -3 -2 -2 -1 -1 -1 -2 -2 -2 -1 -1 -0 -0 -0 -0 -0 -1 -1 -1 -1 -1 -1 -0 1 2 1 1 0 1 1 1 1 2 2 2 2 2 2 2 2 1 1 1 -0 -1 -1 -1 -0 1
-1 -2 -2 -2 -2 -2 -3 -3 -4 -4 -4 -4 -4 -4 -3 -3 -2 -2 -1 -1 -1 -1 -1 -1 -2 -2 -2 -2 -1 1 2 2 2 1 0 -0 -1 -1 -1 -1 -1 -0 1 1 1 1 1 0 0 0 0 0 1 1 1 2 1 1 1 1 1 0 -0 -1 -1 -0 0 1 1
-2 -2 -2 -2 -2 -3 -3 -3 -3 -4 -4 -4 -3 -2 -1 -1 -1 -0 -0 -0 -0 -1 -1 -2 -2 -1 -0 2 3 4 3 2 2 1 1 0 -0 -0 -0 -0 1 2 2 2 2 2 2 1 1 0 0 0 1 1 1 1 1 0 0 -0 -1 -1 -1 -0 1 1 1 1 0
-3 -3 -3 -3 -2 -2 -2 -2 -3 -3 -3 -3 -2 -1 -1 -1 -1 -1 -1 -1 -1 -1 -1 -1 0 1 3 3 3 3 2 1 1 1 1 1 1 1 1 1 2 2 2 2 2 2 1 1 0 0 0 1 1 0 0 -0 -0 -0 -1 -1 -1 0 1 1 1 1 0 -0 -0
-4 -3 -3 -2 -2 -2 -2 -2 -2 -2 -2 -2 -2 -1 -1 -1 -1 -2 -2 -1 -1 -0 -0 1 2 2 2 2 2 1 1 0 -0 -1 -1 -0 0 0 1 1 0 1 1 1 1 1 1 1 0 0 0 -0 -0 -0 -0 -0 -0 -0 -0 -0 1 1 1 0 0 -0 -0 -1 -1
-3 -2 -1 -1 -1 -1 -1 -1 -1 -2 -2 -2 -2 -2 -1 -1 -1 -1 -1 -0 -0 0 0 1 1 1 1 1 1 -0 -0 -1 -1 -1 -2 -2 -1 -1 -1 -1 -1 -1 -0 0 1 1 0 -0 -1 -1 -1 -1 -1 -0 -0 0 0 0 0 1 1 -0 -1 -1 -1 -1 -1 -1 -0
-2 -1 -0 -0 -1 -1 -1 -1 -1 -1 -1 -1 -1 -1 -1 -1 -0 -0 0 1 0 0 0 1 1 1 1 1 -0 -1 -1 -1 -0 -1 -2 -3 -2 -2 -2 -2 -2 -1 -0 1 -0 -1 -1 -1 -1 -1 0 1 1 1 1 1 1 1 1 0 -0 -1 -1 -1 -1 -1 -0 0 1
-1 -1 -1 -1 -1 -1 -1 -1 -1 -0 -0 -0 -0 -0 0 0 1 1 1 1 1 0 -0 0 0 0 -0 -0 -1 -1 -1 -1 -1 -2 -4 -4 -3 -2 -1 -1 -1 -1 -1 -1 -1 -1 -1 -0 0 1 1 2 1 1 1 1 1 1 0 -0 -1 -1 -1 -0 -0 1 1 1 1
-1 -1 -1 -1 -1 -1 -1 -1 -1 -0 0 0 1 1 1 1 1 1 0 -0 -0 -0 -0 -0 -1 -1 -1 -1 -1 -2 -2 -3 -4 -6 -6 -5 -2 -1 -0 -0 -1 -2 -2 -1 -0 0 1 1 2 2 2 1 1 1 1 1 0 0 -0 -1 -1 -0 -0 0 1 1 0 -0 -1
-2 -1 -1 -1 -2 -2 -1 -1 -1 -1 -0 -0 -0 0 0 0 -0 -0 -1 -1 -1 -1 -1 -1 -2 -2 -2 -2 -2 -2 -3 -5 -6 -7 -6 -5 -2 -0 1 2 2 1 1 1 1 1 2 2 1 1 1 1 1 1 1 0 -0 -0 -0 -1 -0 -0 -0 -0 -1 -0 -0 -1 -1
Height
3079 3079 3079 3080 3080 3080 3080 3081 3081 3082 3082 3082 3082 3082 3082 3082 3081 3081 3081 3082 3082 3082 3083 3083 3082 3082 3083 3083 3084 3084 3084 3084 3084 3084 3084 3083 3082 3082 3083 3083 3083 3084 3084 3083 3083 3083 3083 3083 3083 3083 3083 3084 3083 3082 3082 3083 3083 3083 3083 3083 3083 3083 3083 3084 3084 3085 3087 3087 3086
3077 3077 3077 3077 3077 3077 3078 3078 3078 3079 3079 3080 3080 3081 3081 3080 3080 3079 3079 3079 3079 3080 3080 3080 3080 3080 3080 3081 3081 3081 3081 3081 3081 3081 3081 3080 3079 3079 3080 3080 3080 3080 3080 3080 3080 3080 3080 3080 3080 3080 3080 3081 3080 3080 3079 3079 3080 3080 3079 3080 3080 3080 3080 3081 3081 3082 3083 3084 3085
3074 3074 3075 3075 3075 3075 3075 3076 3076 3076 3077 3077 3078 3078 3078 3078 3077 3077 3077 3077 3077 3077 3077 3077 3077 3078 3078 3078 3078 3078 3078 3078 3078 3078 3077 3077 3077 3077 3077 3077 3077 3077 3077 3077 3077 3076 3076 3076 3076 3077 3077 3077 3077 3076 3075 3076 3077 3077 3077 3077 3077 3077 3077 3077 3078 3079 3079 3080 3081
3072 3072 3072 3072 3073 3073 3073 3073 3074 3074 3074 3075 3075 3076 3076 3076 3075 3075 3075 3074 3074 3074 3074 3074 3075 3075 3075 3075 3075 3075 3075 3076 3076 3075 3075 3074 3074 3074 3074 3074 3073 3073 3073 3073 3073 3073 3073 3073 3073 3073 3074 3074 3073 3073 3073 3073 3073 3073 3073 3073 3074 3074 3074 3074 3075 3075 3076 3077 3077
3069 3070 3070 3070 3071 3071 3071 3071 3072 3072 3072 3072 3072 3072 3073 3073 3073 3073 3072 3072 3072 3072 3072 3072 3072 3072 3072 3072 3072 3072 3073 3073 3073 3072 3072 3072 3072 3072 3071 3071 3071 3070 3070 3070 3070 3070 3070 3070 3070 3070 3070 3071 3071 3070 3070 3070 3071 3071 3070 3070 3071 3071 3071 3071 3072 3072 3073 3073 3074
3067 3067 3068 3068 3068 3068 3069 3069 3069 3070 3070 3070 3070 3070 3070 3070 3070 3070 3070 3070 3070 3070 3069 3068 3068 3069 3070 3070 3070 3070 3070 3071 3071 3070 3070 3070 3070 3070 3069 3068 3068 3068 3068 3068 3068 3067 3067 3068 3067 3067 3067 3068 3068 3067 3067 3067 3067 3067 3067 3067 3067 3068 3068 3068 3069 3070 3070 3070 3070
3065 3065 3065 3066 3066 3066 3067 3067 3067 3067 3068 3068 3068 3067 3067 3068 3068 3068 3068 3068 3068 3067 3066 3065 3065 3066 3067 3068 3068 3068 3068 3068 3068 3068 3068 3068 3068 3067 3067 3066 3066 3066 3065 3065 3065 3065 3065 3065 3065 3065 3065 3065 3065 3064 3064 3065 3065 3064 3064 3064 3064 3065 3065 3066 3066 3067 3067 3067 3067
3062 3062 3063 3063 3063 3064 3064 3064 3065 3065 3065 3065 3066 3066 3066 3066 3066 3065 3065 3065 3065 3064 3063 3062 3063 3064 3065 3066 3066 3066 3066 3066 3066 3066 3066 3066 3065 3065 3064 3064 3064 3063 3063 3063 3063 3063 3063 3063 3063 3062 3062 3062 3062 3062 3062 3062 3062 3061 3061 3061 3061 3062 3062 3063 3063 3064 3064 3063 3064
3060 3060 3060 3060 3061 3061 3062 3062 3062 3063 3063 3063 3063 3064 3064 3064 3063 3063 3062 3062 3061 3060 3060 3061 3062 3063 3063 3063 3063 3063 3064 3064 3064 3064 3063 3063 3063 3062 3062 3062 3062 3061 3061 3061 3061 3061 3060 3060 3060 3060 3059 3060 3060 3059 3058 3058 3058 3058 3057 3058 3058 3058 3059 3059 3060 3061 3061 3061 3061
3057 3057 3057 3057 3058 3058 3059 3059 3060 3060 3061 3061 3061 3062 3062 3061 3061 3060 3059 3058 3057 3057 3058 3059 3060 3061 3061 3061 3062 3062 3062 3062 3061 3061 3061 3061 3060 3060 3060 3060 3059 3059 3059 3058 3058 3058 3058 3057 3057 3057 3057 3057 3057 3057 3055 3055 3054 3054 3054 3055 3055 3055 3056 3056 3057 3057 3058 3058 3058
3054 3054 3054 3055 3055 3056 3057 3057 3057 3058 3058 3058 3059 3059 3059 3057 3057 3056 3056 3056 3056 3056 3056 3057 3058 3059 3059 3059 3059 3059 3059 3059 3059 3058 3058 3058 3058 3058 3057 3057 3057 3057 3057 3056 3056 3056 3056 3055 3055 3055 3055 3055 3055 3055 3053 3052 3051 3051 3051 3052 3052 3052 3052 3053 3053 3054 3055 3056 3055
3052 3052 3052 3052 3053 3053 3054 3054 3055 3055 3055 3056 3055 3055 3054 3053 3053 3054 3055 3055 3055 3055 3055 3056 3056 3057 3057 3057 3057 3057 3057 3056 3056 3056 3056 3056 3056 3055 3055 3055 3055 3055 3054 3054 3054 3054 3053 3053 3053 3053 3053 3053 3052 3052 3051 3049 3048 3048 3048 3048 3048 3049 3049 3050 3050 3051 3052 3053 3053
3049 3049 3049 3050 3050 3051 3051 3052 3052 3052 3052 3051 3051 3050 3050 3051 3052 3053 3054 3054 3053 3053 3053 3054 3054 3054 3054 3054 3054 3054 3054 3054 3054 3054 3053 3053 3053 3053 3053 3053 3053 3052 3052 3052 3052 3052 3052 3051 3051 3051 3051 3050 3049 3048 3047 3046 3045 3045 3045 3045 3045 3045 3046 3046 3047 3048 3049 3050 3051
3047 3047 3047 3047 3048 3048 3049 3049 3049 3048 3047 3047 3047 3048 3049 3050 3051 3052 3052 3052 3052 3051 3051 3051 3052 3052 3052 3052 3052 3052 3052 3052 3052 3052 3051 3051 3051 3051 3051 3051 3051 3050 3050 3050 3050 3050 3049 3049 3049 3048 3048 3047 3046 3045 3042 3042 3041 3041 3041 3041 3041 3042 3042 3043 3044 3045 3046 3047 3048
3044 3044 3045 3045 3046 3046 3046 3045 3045 3044 3044 3045 3046 3047 3047 3048 3049 3049 3049 3049 3049 3048 3049 3049 3049 3049 3049 3049 3049 3049 3049 3049 3049 3049 3049 3049 3049 3049 3049 3048 3048 3048 3048 3048 3048 3047 3047 3047 3046 3046 3046 3045 3044 3042 3039 3038 3039 3039 3038 3038 3038 3038 3039 3040 3041 3042 3043 3044 3045
3042 3042 3043 3043 3043 3043 3042 3042 3042 3042 3043 3043 3044 3044 3045 3045 3046 3046 3046 3046 3046 3046 3046 3046 3047 3047 3047 3047 3047 3047 3047 3047 3047 3047 3047 3047 3047 3047 3047 3047 3046 3046 3046 3046 3045 3045 3045 3044 3044 3044 3043 3043 3042 3039 3037 3036 3037 3037 3037 3037 3037 3037 3037 3038 3039 3040 3041 3042 3042
3040 3041 3041 3041 3041 3040 3040 3040 3040 3041 3041 3041 3041 3041 3042 3042 3042 3042 3042 3043 3043 3043 3043 3044 3044 3045 3045 3045 3045 3045 3046 3046 3046 3046 3046 3046 3045 3045 3045 3044 3044 3044 3043 3043 3043 3042 3042 3042 3042 3041 3041 3041 3040 3038 3036 3035 3034 3035 3035 3035 3035 3035 3036 3036 3037 3038 3039 3039 3040
3038 3038 3038 3038 3038 3037 3037 3038 3038 3038 3038 3038 3038 3038 3038 3039 3039 3039 3040 3040 3040 3041 3041 3042 3042 3042 3043 3043 3043 3043 3044 3043 3043 3043 3043 3043 3043 3043 3042 3042 3042 3042 3042 3041 3041 3040 3040 3040 3039 3039 3039 3038 3037 3037 3036 3034 3033 3032 3032 3033 3034 3034 3034 3035 3035 3036 3036 3037 3037
3036 3036 3036 3036 3036 3036 3035 3036 3036 3035 3035 3035 3035 3035 3036 3036 3036 3037 3037 3037 3038 3038 3039 3039 3040 3040 3041 3041 3041 3041 3042 3042 3041 3041 3041 3041 3041 3041 3040 3040 3040 3040 3039 3039 3039 3038 3038 3037 3037 3037 3037 3036 3036 3035 3034 3033 3032 3031 3031 3032 3032 3033 3033 3033 3033 3033 3034 3034 3035
3034 3034 3034 3034 3033 3033 3033 3033 3033 3033 3033 3032 3032 3032 3033 3033 3033 3034 3035 3035 3036 3037 3037 3037 3037 3038 3038 3039 3039 3039 3039 3039 3039 3039 3039 3039 3039 3038 3038 3038 3038 3037 3037 3037 3037 3036 3036 3036 3035 3035 3034 3034 3034 3033 3033 3032 3031 3030 3030 3030 3030 3031 3032 3032 3032 3032 3032 3033 3033
3032 3032 3032 3032 3031 3031 3031 3031 3031 3030 3030 3030 3030 3030 3030 3031 3032 3032 3032 3033 3034 3034 3035 3035 3036 3036 3036 3037 3037 3037 3037 3037 3037 3037 3037 3037 3037 3036 3036 3036 3035 3035 3035 3035 3034 3034 3034 3033 3033 3033 3032 3032 3032 3032 3032 3031 3030 3029 3028 3028 3028 3029 3030 3030 3030 3031 3031 3031 3032
3030 3030 3030 3030 3029 3029 3029 3028 3028 3028 3028 3027 3028 3028 3028 3029 3030 3030 3031 3031 3032 3032 3033 3033 3034 3034 3034 3034 3034 3034 3034 3034 3035 3035 3035 3035 3034 3034 3034 3033 3033 3033 3033 3032 3032 3032 3032 3031 3031 3030 3030 3029 3029 3030 3030 3030 3029 3028 3027 3027 3028 3028 3028 3028 3028 3028 3029 3029 3030
3028 3028 3028 3028 3027 3027 3027 3027 3026 3026 3026 3026 3026 3026 3027 3027 3028 3028 3029 3030 3030 3031 3031 3032 3032 3032 3032 3032 3032 3032 3032 3032 3032 3032 3032 3032 3032 3032 3032 3032 3031 3031 3031 3031 3030 3029 3029 3029 3028 3027 3027 3026 3026 3027 3027 3027 3027 3027 3027 3027 3027 3027 3027 3027 3027 3027 3027 3027 3028
3027 3026 3026 3026 3026 3025 3025 3025 3024 3024 3024 3024 3024 3025 3025 3026 3026 3027 3027 3028 3028 3029 3029 3030 3030 3030 3031 3031 3031 3031 3031 3031 3031 3031 3031 3030 3030 3030 3030 3030 3030 3029 3029 3028 3028 3027 3027 3026 3026 3025 3024 3024 3024 3024 3024 3024 3025 3025 3026 3027 3027 3027 3026 3026 3026 3026 3026 3026 3026
3025 3025 3025 3024 3024 3023 3023 3023 3022 3022 3022 3023 3023 3023 3024 3024 3025 3025 3026 3027 3027 3027 3028 3028 3028 3029 3029 3029 3029 3030 3030 3029 3029 3029 3029 3028 3028 3028 3028 3028 3028 3027 3027 3026 3026 3025 3025 3024 3023 3022 3022 3023 3023 3023 3023 3023 3023 3024 3025 3026 3026 3026 3025 3025 3025 3025 3025 3025 3025
3024 3023 3023 3022 3022 3022 3022 3021 3021 3021 3021 3022 3022 3022 3023 3023 3024 3024 3025 3025 3026 3026 3026 3027 3027 3027 3027 3028 3028 3028 3028 3027 3027 3027 3027 3027 3027 3027 3027 3027 3026 3026 3025 3024 3023 3023 3023 3022 3022 3021 3021 3022 3022 3022 3022 3023 3022 3022 3023 3024 3025 3025 3024 3024 3023 3023 3023 3023 3023
3022 3022 3022 3021 3021 3020 3020 3020 3020 3020 3020 3021 3021 3021 3022 3022 3022 3023 3023 3024 3024 3024 3025 3025 3026 3026 3026 3026 3026 3026 3026 3026 3026 3026 3026 3025 3025 3025 3025 3025 3024 3023 3023 3022 3022 3021 3021 3021 3020 3020 3020 3020 3021 3021 3022 3022 3021 3021 3022 3022 3023 3023 3023 3022 3022 3022 3022 3022 3022
3021 3021 3020 3020 3020 3019 3019 3019 3019 3019 3019 3019 3020 3020 3021 3021 3021 3022 3022 3022 3023 3023 3023 3024 3024 3024 3024 3024 3024 3024 3024 3025 3025 3025 3024 3024 3024 3023 3023 3022 3022 3022 3021 3021 3020 3019 3019 3019 3019 3019 3019 3019 3019 3020 3020 3020 3020 3020 3021 3021 3021 3021 3021 3021 3021 3021 3020 3020 3020
3020 3019 3019 3019 3019 3018 3018 3018 3018 3018 3018 3018 3019 3019 3019 3019 3020 3020 3020 3021 3021 3021 3022 3022 3022 3022 3022 3022 3023 3023 3024 3024 3024 3023 3023 3022 3022 3022 3021 3021 3020 3020 3020 3019 3019 3018 3018 3018 3018 3018 3018 3018 3018 3019 3019 3019 3019 3019 3019 3019 3019 3020 3020 3020 3020 3019 3019 3018 3018
3019 3019 3018 3018 3018 3017 3017 3017 3017 3017 3017 3017 3017 3018 3018 3018 3018 3018 3019 3019 3019 3020 3020 3020 3021 3021 3021 3022 3022 3023 3023 3023 3023 3022 3022 3021 3021 3020 3020 3020 3019 3019 3019 3018 3018 3018 3018 3018 3017 3017 3017 3017 3017 3017 3017 3017 3017 3017 3017 3017 3017 3018 3018 3017 3017 3017 3017 3016 3016
3018 3018 3017 3017 3017 3017 3017 3016 3016 3016 3016 3016 3016 3016 3017 3017 3017 3017 3017 3017 3018 3018 3019 3019 3019 3020 3020 3020 3021 3022 3022 3022 3022 3021 3020 3020 3019 3019 3019 3018 3018 3018 3017 3017 3017 3017 3017 3017 3016 3016 3016 3016 3016 3016 3016 3016 3016 3016 3016 3015 3015 3015 3015 3015 3015 3015 3014 3014 3014
3017 3017 3017 3017 3016 3016 3016 3015 3015 3015 3015 3015 3015 3015 3015 3015 3015 3016 3016 3016 3017 3017 3017 3017 3018 3018 3018 3019 3020 3020 3021 3021 3020 3019 3019 3018 3018 3017 3017 3017 3017 3017 3017 3016 3016 3016 3016 3015 3015 3015 3015 3015 3015 3014 3014 3014 3014 3014 3014 3013 3013 3013 3013 3013 3013 3013 3013 3013 3013
3016 3016 3016 3016 3015 3015 3015 3015 3014 3014 3014 3014 3014 3014 3014 3014 3014 3015 3015 3015 3016 3016 3016 3016 3017 3017 3017 3018 3018 3019 3019 3019 3018 3018 3017 3017 3017 3016 3016 3016 3016 3015 3015 3015 3015 3014 3014 3014 3014 3014 3014 3013 3013 3013 3013 3013 3012 3012 3012 3012 3012 3012 3012 3012 3012 3012 3012 3012 3012
3015 3015 3014 3014 3014 3014 3014 3014 3014 3013 3013 3013 3013 3013 3013 3014 3014 3014 3014 3015 3015 3015 3015 3016 3016 3016 3017 3017 3017 3018 3018 3017 3017 3017 3016 3015 3015 3015 3014 3014 3014 3014 3014 3013 3013 3013 3013 3013 3013 3013 3012 3012 3012 3012 3012 3012 3012 3011 3011 3011 3011 3011 3011 3011 3011 3011 3011 3011 3011
3013 3013 3013 3013 3013 3013 3013 3013 3013 3013 3013 3012 3012 3013 3013 3013 3013 3014 3014 3014 3014 3015 3015 3015 3016 3016 3016 3017 3017 3017 3016 3016 3016 3015 3015 3014 3014 3014 3013 3013 3013 3013 3013 3013 3013 3012 3012 3012 3012 3012 3012 3011 3011 3011 3011 3011 3011 3010 3010 3010 3010 3010 3010 3010 3010 3010 3010 3010 3010
3012 3012 3012 3012 3012 3012 3012 3012 3012 3012 3012 3012 3012 3012 3012 3012 3013 3013 3013 3013 3014 3014 3014 3015 3015 3015 3016 3016 3016 3015 3015 3015 3014 3014 3014 3013 3013 3013 3013 3012 3012 3012 3012 3012 3012 3012 3012 3011 3011 3011 3011 3010 3010 3010 3010 3010 3009 3009 3009 3009 3009 3009 3009 3009 3009 3010 3010 3010 3010
3012 3012 3012 3012 3012 3012 3012 3012 3012 3012 3012 3012 3012 3012 3012 3012 3012 3012 3013 3013 3013 3014 3014 3014 3014 3014 3014 3014 3014 3014 3014 3014 3013 3013 3013 3012 3012 3012 3012 3012 3012 3012 3011 3011 3011 3011 3010 3010 3010 3010 3010 3009 3009 3009 3009 3009 3009 3008 3008 3008 3009 3009 3009 3009 3009 3009 3009 3009 3009
3011 3011 3012 3011 3011 3011 3011 3011 3011 3011 3011 3011 3011 3012 3012 3012 3012 3012 3012 3013 3013 3013 3013 3013 3013 3013 3013 3013 3013 3013 3013 3012 3012 3012 3012 3012 3011 3011 3011 3011 3010 3010 3010 3010 3010 3010 3009 3009 3009 3009 3009 3009 3008 3008 3008 3008 3008 3008 3008 3008 3008 3009 3009 3009 3009 3009 3008 3008 3008
3010 3010 3010 3010 3010 3010 3010 3010 3011 3011 3011 3011 3011 3011 3011 3012 3012 3012 3012 3012 3012 3012 3012 3012 3012 3012 3012 3012 3012 3012 3012 3011 3011 3011 3011 3010 3010 3010 3010 3010 3009 3009 3009 3009 3009 3009 3008 3008 3008 3008 3008 3008 3008 3008 3008 3007 3008 3008 3008 3008 3008 3008 3008 3008 3008 3008 3008 3007 3007
3009 3009 3009 3009 3009 3009 3009 3010 3010 3010 3010 3010 3011 3011 3011 3011 3011 3011 3011 3011 3011 3011 3011 3011 3011 3011 3011 3011 3011 3010 3010 3010 3010 3010 3009 3009 3009 3009 3009 3009 3009 3008 3008 3008 3008 3008 3008 3008 3008 3008 3008 3007 3007 3007 3007 3007 3007 3007 3008 3008 3008 3008 3007 3007 3007 3007 3007 3007 3006
3008 3008 3008 3008 3008 3008 3009 3009 3009 3009 3009 3010 3010 3010 3010 3010 3010 3010 3010 3010 3010 3010 3010 3010 3010 3010 3010 3010 3009 3009 3009 3008 3008 3008 3008 3008 3008 3008 3008 3008 3008 3007 3007 3007 3007 3007 3007 3008 3008 3008 3008 3007 3007 3007 3007 3007 3007 3007 3007 3007 3007 3007 3007 3007 3007 3006 3006 3005 3005